Weather History for Eureka, NV

Change the Weather History Date:

Monday, September 9, 2013

  Actual Average Record
Temperature  
Mean Temperature 62 °F 61 °F  
Max Temperature 81 °F 80 °F 90 °F (1990)
Min Temperature 42 °F 41 °F 27 °F (2001)
Degree Days  
Heating Degree Days 3 5  
Month to date heating degree days 4 35  
Since 1 July heating degree days 5 82  
Cooling Degree Days 0 1  
Month to date cooling degree days 36 9  
Year to date cooling degree days 577 286  
Growing Degree Days 12 (Base 50)    
Moisture  
Dew Point 37 °F    
Average Humidity 47    
Maximum Humidity 76    
Minimum Humidity 18    
Precipitation  
Precipitation 0.00 in 0.02 in 0.61 in (1969)
Month to date precipitation 0.48 0.18  
Year to date precipitation 5.43 6.47  
Sea Level Pressure  
Sea Level Pressure 29.88 in    
Wind  
Wind Speed 7 mph (SE)    
Max Wind Speed 20 mph    
Max Gust Speed 24 mph    
T = Trace of Precipitation, MM = Missing Value Source: NWS Daily Summary

Daily Weather History Graph

Daily Weather History Graph

Search for Another Location

Airport:

Trip Planner

Search our weather history database for the weather conditions in past years. The results will help you decide how hot, cold, wet, or windy it might be!

Date:

Astronomy

Sep. 09, 2013 Rise Set
Actual Time 6:19 AM PDT 7:01 PM PDT
Civil Twilight 5:52 AM PDT 7:28 PM PDT
Nautical Twilight 5:20 AM PDT 8:01 PM PDT
Astronomical Twilight 4:47 AM PDT 8:34 PM PDT
Moon 10:45 AM PDT (9/9) 9:22 PM PDT (9/9)
Length of Visible Light 13h 36m
Length of Day
12h 41m
Waxing Crescent, 20% of the Moon is Illuminated
Sep 9
Waxing Crescent
Sep 12
First Quarter
Sep 19
Full
Sep 26
Last Quarter
Oct 4
New

Hourly Weather History & Observations

Time (PDT) Temp. Windchill Dew Point Humidity Pressure Visibility Wind Dir Wind Speed Gust Speed Precip Events Conditions
12:53 AM 50.0 °F - 36.0 °F 59% 29.87 in - South 5.8 mph - N/A   Unknown
1:53 AM 50.0 °F - 34.0 °F 54% 29.87 in - South 6.9 mph - N/A   Unknown
2:53 AM 46.9 °F - 34.0 °F 61% 29.88 in - South 4.6 mph - N/A   Unknown
3:53 AM 46.0 °F 42.5 °F 34.0 °F 63% 29.89 in - South 6.9 mph - N/A   Unknown
4:53 AM 43.0 °F 39.5 °F 36.0 °F 76% 29.90 in - South 5.8 mph - N/A   Unknown
5:53 AM 44.1 °F 41.5 °F 34.0 °F 68% 29.91 in - SSW 4.6 mph - N/A   Unknown
6:53 AM 45.0 °F 42.6 °F 37.9 °F 76% 29.94 in - South 4.6 mph - N/A   Unknown
7:53 AM 55.9 °F - 41.0 °F 57% 29.92 in - SW 3.5 mph - N/A   Unknown
8:53 AM 66.0 °F - 39.9 °F 38% 29.93 in - NNE 4.6 mph - N/A   Unknown
9:53 AM 68.0 °F - 39.9 °F 36% 29.92 in - Variable 5.8 mph - N/A   Unknown
10:53 AM 71.1 °F - 41.0 °F 34% 29.92 in - North 8.1 mph - N/A   Unknown
11:53 AM 75.0 °F - 39.0 °F 27% 29.89 in - North 9.2 mph - N/A   Unknown
12:53 PM 77.0 °F - 37.9 °F 24% 29.87 in - North - - N/A   Unknown
1:53 PM 78.1 °F - 37.9 °F 24% 29.85 in - Variable 6.9 mph - N/A   Unknown
2:53 PM 79.0 °F - 34.0 °F 20% 29.83 in - NNE 13.8 mph 19.6 mph N/A   Unknown
3:53 PM 80.1 °F - 33.1 °F 18% 29.81 in - North 18.4 mph 21.9 mph N/A   Unknown
4:53 PM 79.0 °F - 33.1 °F 19% 29.83 in - North 16.1 mph 21.9 mph N/A   Unknown
5:53 PM 75.9 °F - 35.1 °F 23% 29.84 in - North 12.7 mph - N/A   Unknown
6:53 PM 68.0 °F - 37.9 °F 33% 29.87 in - North 8.1 mph - N/A   Unknown
7:53 PM 61.0 °F - 37.9 °F 42% 29.87 in - East 3.5 mph - N/A   Unknown
8:53 PM 57.9 °F - 37.0 °F 46% 29.86 in - ESE 4.6 mph - N/A   Unknown
9:53 PM 53.1 °F - 39.0 °F 59% 29.88 in - South 3.5 mph - N/A   Unknown
10:53 PM 55.0 °F - 37.0 °F 51% 29.87 in - South 5.8 mph - N/A   Unknown
11:53 PM 53.1 °F - 36.0 °F 52% 29.86 in - Calm Calm - N/A   Unknown